Observations for Trim Market St
| Time | AQI | Temp °C | Hum % | Pres Pa | CO μg/m³ | H₂S μg/m³ | NO μg/m³ | NO₂ μg/m³ | O₃ μg/m³ | SO₂ μg/m³ | PM1 μg/m³ | PM2.5 μg/m³ | PM10 μg/m³ |
|---|---|---|---|---|---|---|---|---|---|---|---|---|---|
| Saturday 22 August 2026 | |||||||||||||
| 00:22 | 2 | 11.4 | 74 | 51,966 | 0.38 | 0 | 4.45 | 9.11 | 43.03 | 0 | 1.43 | 3.36 | 7.53 |
| 00:20 | 2 | 11.4 | 74 | 52,051 | 0.37 | 0 | 3.67 | 11.29 | 38.72 | 0 | 1.43 | 2.88 | 5.71 |
| 00:15 | 2 | 11.5 | 73 | 52,414 | 0.41 | 0 | 3.26 | 16.68 | 31.11 | 0 | 0.71 | 2.41 | 5.1 |
| 00:14 | 2 | 11.5 | 73 | 52,489 | 0.37 | 0 | 3.21 | 12.38 | 37.69 | 0 | 2.14 | 2.89 | 6.92 |
| 00:12 | 2 | 11.5 | 73 | 52,691 | 0.37 | 0 | 3.36 | 11.42 | 40.39 | 0 | 1.43 | 2.42 | 4.49 |
| 00:04 | 2 | 11.6 | 73 | 53,206 | 0.36 | 0 | 4.46 | 18.02 | 29.12 | 0 | 2.14 | 2.92 | 5.09 |
| 00:03 | 2 | 11.6 | 73 | 53,283 | 0.38 | 0 | 4.46 | 20.67 | 27.21 | 0 | 1.43 | 3.4 | 5.7 |
| 00:02 | 2 | 11.6 | 73 | 53,352 | 0.37 | 0 | 3.87 | 16.18 | 33.94 | 0 | 1.43 | 2.44 | 4.48 |
| 00:00 | 2 | 11.6 | 73 | 53,474 | 0.35 | 0 | 4.02 | 10.96 | 40.85 | 0 | 1.43 | 3.4 | 5.7 |
| Friday 21 August 2026 | |||||||||||||
| 23:59 | 2 | 11.7 | 73 | 53,531 | 0.37 | 0 | 3.18 | 10.83 | 41.68 | 0 | 1.43 | 3.4 | 6.31 |
| 23:57 | 2 | 11.7 | 73 | 53,623 | 0.36 | 0 | 3.84 | 12.53 | 38.17 | 0 | 2.14 | 2.93 | 5.7 |
| 23:56 | 2 | 11.7 | 73 | 53,664 | 0.36 | 0 | 3.62 | 12.78 | 37.65 | 0 | 1.43 | 2.93 | 5.08 |
| 23:55 | 2 | 11.7 | 73 | 53,722 | 0.35 | 0 | 3.32 | 10.18 | 42.65 | 0 | 0.71 | 1.97 | 3.86 |
| 23:54 | 2 | 11.8 | 72 | 53,783 | 0.35 | 0 | 3.44 | 10.99 | 41.67 | 0 | 0.71 | 1.97 | 4.47 |
| 23:53 | 2 | 11.8 | 72 | 53,845 | 0.35 | 0 | 3.27 | 11.19 | 40.18 | 0 | 0.71 | 2.45 | 4.47 |
| 23:43 | 2 | 12 | 72 | 54,347 | 0.35 | 0 | 4.29 | 11.94 | 40.15 | 0 | 1.43 | 3.44 | 5.69 |
| 23:42 | 2 | 12 | 72 | 54,387 | 0.35 | 0 | 4.14 | 13.94 | 37.48 | 0 | 2.14 | 4.41 | 6.92 |
| 23:41 | 2 | 12 | 72 | 54,444 | 0.35 | 0 | 4.74 | 16.35 | 34.21 | 0 | 0.71 | 2.48 | 4.46 |
| 23:40 | 2 | 12 | 72 | 54,488 | 0.39 | 0 | 5.78 | 24.91 | 22.5 | 0 | 1.43 | 3.44 | 5.69 |
| 23:34 | 2 | 12.1 | 72 | 54,773 | 0.32 | 0 | 3.16 | 12.87 | 38.99 | 0 | 1.43 | 2.98 | 5.68 |